Terminal Aerodrome Forecast
Issued by NWS North Platte, NE

Home | Current Version | Previous Version | Graphics & Text | Print | Product List | Glossary On
Versions: 1 2 3 4 5 6 7 8 9 10 11 12 13 14
761
FTUS43 KLBF 211125
TAFVTN
TAF
KVTN 211125Z 2112/2212 VRB04KT 1/2SM FG OVC002
     FM211400 11004KT 2SM BR BKN004
     FM211800 07003KT P6SM SCT007 OVC050
     FM220000 36010KT P6SM OVC050=

USA.gov is the U.S. government's official web portal to all federal, state and local government web resources and services.